GW6132 Weather Reports


time (UTC)temp
F
wind
direction
speed
knots
gust
knots
rain 1hr
in
rain 24hr
in
rain mn
in
humidity
%
barometer
mb
20260504050722 73 233 1.7 2.6 0.00 0.00 0.10 93 1020.0
20260504050222 73 228 1.7 3.5 0.00 0.00 0.10 93 1020.0
20260504045722 73 232 1.7 1.7 0.00 0.00 0.10 93 1020.0
20260504045222 73 245 1.7 2.6 0.00 0.00 0.10 94 1020.0
20260504044723 73 209 1.7 2.6 0.00 0.00 0.10 94 1020.0
20260504044222 73 263 1.7 2.6 0.00 0.00 0.10 94 1020.0
20260504043307 73 260 1.7 3.5 0.00 0.00 0.10 94 1020.0
20260504042722 73 222 1.7 3.5 0.00 0.00 0.10 94 1020.0
20260504042222 73 221 1.7 2.6 0.00 0.00 0.10 94 1020.0
20260504041723 73 237 1.7 2.6 0.00 0.00 0.10 94 1020.0
20260504041222 73 233 1.7 2.6 0.00 0.00 0.10 95 1020.0
20260504040723 73 232 0.9 2.6 0.00 0.00 0.10 95 1020.0
20260504040222 73 236 1.7 2.6 0.00 0.00 0.10 95 1020.0
20260504035722 73 239 1.7 2.6 0.00 0.00 0.10 95 1020.0
20260504035222 73 247 1.7 2.6 0.00 0.00 0.10 95 1020.0
20260504034723 73 212 1.7 2.6 0.00 0.00 0.10 95 1020.0
20260504034223 73 232 1.7 3.5 0.00 0.00 0.10 95 1020.0
20260504033722 73 241 0.9 2.6 0.00 0.00 0.10 95 1020.0
20260504033223 73 246 1.7 3.5 0.00 0.00 0.10 95 1020.0
20260504032724 73 242 1.7 2.6 0.00 0.00 0.10 95 1020.0
20260504032223 73 229 1.7 3.5 0.00 0.00 0.10 96 1020.0
20260504031723 73 220 0.9 2.6 0.00 0.00 0.10 95 1020.0
20260504031222 73 238 2.6 3.5 0.00 0.00 0.10 96 1020.0
20260504030722 73 249 1.7 3.5 0.00 0.00 0.10 96 1020.0
20260504030222 73 231 0.9 2.6 0.00 0.00 0.10 95 1020.0
20260504025235 73 251 0.9 2.6 0.00 0.00 0.10 95 1020.0
20260504024723 73 256 0.0 0.0 0.00 0.00 0.10 95 1020.0
20260504024222 73 240 0.0 0.0 0.00 0.00 0.10 95 1020.0
20260504023722 74 292 0.9 1.7 0.00 0.00 0.10 95 1020.0
20260504023222 74 239 0.9 1.7 0.00 0.00 0.10 95 1020.0
20260504022722 73 255 0.0 1.7 0.00 0.00 0.10 95 1020.0
20260504022222 74 257 0.0 1.7 0.00 0.00 0.10 95 1019.0
20260504021722 74 239 0.0 0.9 0.00 0.00 0.10 95 1019.0
20260504021222 74 334 0.0 0.0 0.00 0.00 0.10 95 1019.0
20260504020722 74 34 0.0 0.0 0.00 0.00 0.10 95 1019.0
20260504020223 73 313 0.0 0.0 0.00 0.00 0.10 95 1019.0
20260504015722 73 341 0.0 1.7 0.00 0.00 0.10 94 1019.0
20260504015222 73 354 0.0 2.6 0.00 0.00 0.10 94 1019.0
20260504014722 73 39 1.7 3.5 0.00 0.00 0.10 94 1019.0
20260504014222 73 42 1.7 3.5 0.00 0.00 0.10 94 1019.0
20260504013722 73 36 0.9 2.6 0.00 0.00 0.10 94 1019.0
20260504013222 73 55 1.7 3.5 0.00 0.00 0.10 95 1019.0
20260504012722 73 53 0.9 2.6 0.00 0.00 0.10 95 1019.0
20260504012225 73 35 1.7 3.5 0.00 0.00 0.10 94 1019.0
20260504011722 73 29 1.7 2.6 0.00 0.00 0.10 94 1019.0
20260504011223 73 351 0.9 2.6 0.00 0.00 0.10 94 1019.0
20260504010723 73 348 0.9 2.6 0.00 0.00 0.09 94 1019.0
20260504010223 73 357 1.7 3.5 0.00 0.00 0.09 94 1019.0
20260504005723 73 3 1.7 2.6 0.00 0.00 0.09 94 1018.0
20260504005226 73 58 2.6 7.0 0.00 0.00 0.08 94 1018.0
20260504004725 73 31 1.7 3.5 0.00 0.00 0.08 94 1018.0
20260504004222 73 46 2.6 3.5 0.00 0.00 0.08 94 1018.0
20260504003722 73 67 2.6 5.2 0.00 0.00 0.08 93 1018.0
20260504003223 73 46 2.6 6.1 0.00 0.00 0.08 93 1018.0
20260504002722 74 63 4.3 7.8 0.00 0.00 0.08 93 1018.0
20260504002222 74 63 3.5 6.1 0.00 0.00 0.08 92 1018.0
20260504001722 74 20 3.5 7.0 0.00 0.00 0.08 91 1018.0
20260504001222 74 32 7.0 11.3 0.00 0.00 0.08 90 1018.0
20260504000722 74 45 6.1 11.3 0.00 0.00 0.08 89 1018.0
20260504000226 75 4 7.0 11.3 0.00 0.00 0.08 88 1018.0
20260503235722 76 68 7.0 9.6 0.00 0.00 0.08 86 1018.0
20260503235222 76 60 6.1 9.6 0.00 0.00 0.08 84 1017.0
20260503234722 77 7 4.3 7.0 0.00 0.00 0.08 81 1017.0
20260503234222 77 58 6.1 8.7 0.00 0.00 0.08 81 1017.0
20260503233722 77 96 5.2 7.8 0.00 0.00 0.08 80 1017.0
20260503233222 77 17 5.2 8.7 0.00 0.00 0.08 80 1017.0
20260503232722 77 59 5.2 7.8 0.00 0.00 0.08 80 1017.0
20260503232222 77 17 5.2 7.0 0.00 0.00 0.08 80 1017.0
20260503231722 78 4 5.2 8.7 0.00 0.00 0.08 79 1017.0
20260503231222 78 37 7.0 10.4 0.00 0.00 0.08 79 1017.0
20260503230722 78 30 6.1 8.7 0.00 0.00 0.08 80 1017.0
20260503230222 78 50 5.2 7.8 0.00 0.00 0.08 79 1017.0
20260503225722 78 51 5.2 8.7 0.00 0.00 0.08 79 1017.0
20260503225222 78 75 6.1 8.7 0.00 0.00 0.08 78 1017.0
20260503224722 78 64 4.3 9.6 0.00 0.00 0.08 78 1017.0
20260503224222 79 58 4.3 6.1 0.00 0.00 0.08 78 1017.0
20260503223722 79 75 3.5 6.1 0.00 0.00 0.08 78 1017.0
20260503223223 79 56 3.5 7.0 0.00 0.00 0.08 78 1017.0
20260503222722 79 97 4.3 7.8 0.00 0.00 0.08 77 1017.0
20260503222222 80 91 4.3 9.6 0.00 0.00 0.08 76 1017.0
20260503221722 80 101 2.6 4.3 0.00 0.00 0.08 76 1017.0
20260503221222 81 110 0.9 1.7 0.00 0.00 0.08 77 1017.0
20260503220723 80 148 0.9 1.7 0.00 0.00 0.08 77 1017.0
20260503220222 80 126 0.9 2.6 0.00 0.00 0.08 77 1017.0
20260503215722 80 342 0.9 2.6 0.00 0.00 0.08 78 1017.0
20260503215222 80 127 1.7 2.6 0.00 0.00 0.08 76 1017.0
20260503214722 80 46 0.9 3.5 0.00 0.00 0.08 78 1017.0
20260503214223 81 87 1.7 3.5 0.00 0.00 0.08 78 1017.0
20260503213722 81 179 1.7 3.5 0.00 0.00 0.08 77 1017.0
20260503213222 81 129 1.7 2.6 0.00 0.00 0.08 77 1017.0
20260503212722 81 137 1.7 3.5 0.00 0.00 0.08 78 1017.0
20260503212222 81 197 1.7 4.3 0.00 0.00 0.08 78 1017.0
20260503211723 81 285 1.7 3.5 0.00 0.00 0.08 80 1018.0
20260503211222 80 116 2.6 4.3 0.00 0.00 0.08 77 1017.0
20260503210722 81 100 2.6 4.3 0.00 0.00 0.08 76 1018.0
20260503210223 81 182 3.5 5.2 0.00 0.00 0.08 77 1018.0
20260503205722 81 233 3.5 6.1 0.00 0.00 0.08 79 1018.0
20260503205223 81 153 2.6 4.3 0.00 0.00 0.08 77 1018.0
20260503204722 81 200 1.7 3.5 0.00 0.00 0.08 79 1018.0
20260503204222 80 173 1.7 3.5 0.00 0.00 0.08 80 1018.0
20260503203723 80 159 2.6 5.2 0.00 0.00 0.08 80 1018.0
20260503203222 80 199 3.5 6.1 0.00 0.00 0.08 80 1018.0
20260503202722 80 157 2.6 3.5 0.00 0.00 0.08 80 1018.0
20260503202223 80 167 1.7 2.6 0.00 0.00 0.08 80 1019.0
20260503201722 80 198 0.0 1.7 0.00 0.00 0.08 79 1019.0
20260503201222 80 336 0.0 1.7 0.00 0.00 0.08 80 1019.0
20260503200722 80 309 0.9 2.6 0.00 0.00 0.08 81 1019.0
20260503200222 80 186 1.7 3.5 0.00 0.00 0.08 81 1019.0
20260503195722 80 166 1.7 3.5 0.00 0.00 0.08 82 1019.0
20260503195222 80 154 1.7 3.5 0.00 0.00 0.08 82 1019.0
20260503194722 80 158 1.7 3.5 0.00 0.00 0.08 83 1019.0
20260503194223 80 176 1.7 4.3 0.00 0.00 0.08 82 1019.0
20260503193723 79 128 1.7 3.5 0.00 0.00 0.08 82 1019.0
20260503193222 79 175 2.6 5.2 0.00 0.00 0.08 83 1019.0
20260503192722 79 213 2.6 4.3 0.00 0.00 0.08 83 1019.0
20260503192223 79 186 1.7 3.5 0.00 0.00 0.08 84 1019.0
20260503191722 78 129 1.7 4.3 0.00 0.00 0.08 86 1019.0
20260503191223 78 130 2.6 5.2 0.00 0.00 0.08 86 1019.0
20260503190722 78 107 2.6 4.3 0.00 0.00 0.08 87 1020.0
20260503190222 78 116 2.6 5.2 0.00 0.00 0.08 86 1020.0
20260503185722 78 110 2.6 5.2 0.00 0.00 0.08 87 1020.0
20260503185222 78 130 2.6 5.2 0.00 0.00 0.08 87 1020.0
20260503184723 77 157 2.6 5.2 0.00 0.00 0.08 88 1020.0
20260503184222 77 125 2.6 5.2 0.00 0.00 0.08 87 1020.0
20260503183723 78 129 3.5 5.2 0.00 0.00 0.08 87 1020.0
20260503183222 78 104 2.6 4.3 0.00 0.00 0.08 88 1020.0
20260503182722 77 91 2.6 5.2 0.00 0.00 0.08 88 1020.0
20260503182222 77 73 1.7 3.5 0.00 0.00 0.08 89 1020.0
20260503181722 77 121 2.6 5.2 0.00 0.00 0.08 88 1020.0
20260503181224 77 132 2.6 4.3 0.00 0.00 0.08 88 1021.0
20260503180723 77 87 2.6 5.2 0.00 0.00 0.08 87 1020.0
20260503180222 77 126 1.7 3.5 0.00 0.00 0.08 88 1021.0
20260503175722 77 125 1.7 3.5 0.00 0.00 0.08 89 1021.0
20260503175222 76 114 2.6 4.3 0.00 0.00 0.08 88 1021.0
20260503174723 77 146 0.9 3.5 0.00 0.00 0.08 88 1021.0
20260503174222 76 13 1.7 2.6 0.00 0.00 0.08 89 1021.0
20260503173722 77 147 1.7 3.5 0.00 0.00 0.08 88 1021.0
20260503173224 76 203 1.7 2.6 0.00 0.00 0.07 89 1021.0
20260503172722 76 225 0.9 2.6 0.00 0.00 0.07 89 1021.0
20260503172222 76 195 1.7 2.6 0.00 0.00 0.07 90 1021.0
20260503171723 76 84 1.7 3.5 0.00 0.00 0.07 90 1021.0
20260503171222 76 338 0.0 1.7 0.00 0.00 0.07 92 1021.0
20260503170722 76 162 0.9 2.6 0.00 0.00 0.07 92 1021.0
20260503170222 76 114 1.7 3.5 0.00 0.00 0.07 92 1021.0
20260503150722 76 70 3.5 7.0 0.00 0.00 0.00 91 1021.0
20260503150224 76 70 3.5 6.1 0.00 0.00 0.00 89 1021.0
20260503140222 75 86 5.2 7.8 0.00 0.00 0.00 91 1020.0
20260503131222 75 92 2.6 5.2 0.00 0.00 0.00 91 1019.0
20260503130722 74 103 3.5 6.1 0.00 0.00 0.00 91 1018.0
20260503130223 74 141 2.6 6.1 0.00 0.00 0.00 91 1018.0
20260503120222 74 161 3.5 5.2 0.00 0.00 0.00 91 1017.0
20260503110722 75 121 0.9 1.7 0.00 0.00 0.00 89 1017.0
20260503110222 75 155 1.7 2.6 0.00 0.00 0.00 89 1017.0
20260503100222 75 129 3.5 5.2 0.00 0.00 0.00 84 1017.0
20260503090222 76 165 2.6 6.1 0.00 0.00 0.00 82 1017.0
20260503081222 76 153 2.6 4.3 0.00 0.00 0.00 81 1017.0
20260503080722 76 246 2.6 5.2 0.00 0.00 0.00 81 1017.0
20260503080222 76 213 3.5 6.1 0.00 0.00 0.00 81 1017.0
20260503072722 76 200 2.6 5.2 0.00 0.00 0.00 82 1018.0
20260503072222 76 172 1.7 4.3 0.00 0.00 0.00 82 1018.0
20260503071723 76 194 2.6 5.2 0.00 0.00 0.00 82 1018.0
20260503071222 77 231 2.6 6.1 0.00 0.00 0.00 81 1018.0
20260503070722 77 184 2.6 6.1 0.00 0.00 0.00 81 1018.0
20260503070222 76 154 2.6 6.1 0.00 0.00 0.00 81 1018.0
20260503060222 78 149 2.6 5.2 0.00 0.00 0.00 79 1019.0
20260503054723 78 126 2.6 5.2 0.00 0.00 0.00 79 1018.0
20260503054222 78 151 2.6 6.1 0.00 0.00 0.00 78 1018.0
20260503053722 78 151 2.6 5.2 0.00 0.00 0.00 78 1018.0